DAL605 KJFK-CYYZ

Flight info

Callsign DAL605
Flight time 1h 3m
Altitude 32000
Route GAYEL Q818 WOZEE LINNG3
Aircraft A359/H-SDE2E3GHIJ3J4J5LM1ORWXY/LB1D1

Departure

Time 2026-05-09 12:05
Airport John F. Kennedy International Airport (KJFK)

Arrival

Time 2026-05-09 13:08
Airport Toronto Pearson International Airport (CYYZ)
Time Latitude Longitude Altitude Speed Heading
2026-05-09 11:38 40.64970 -73.79241 13 ft 0 kts 331°
2026-05-09 11:52 40.64960 -73.79235 22 ft 2 kts 341°
2026-05-09 11:53 40.64944 -73.79229 23 ft 2 kts 354°
2026-05-09 11:53 40.64928 -73.79230 23 ft 2 kts 16°
2026-05-09 11:53 40.64913 -73.79239 24 ft 2 kts 37°
2026-05-09 11:53 40.64901 -73.79254 23 ft 2 kts 51°
2026-05-09 11:54 40.64893 -73.79269 25 ft 1 kts 58°
2026-05-09 11:54 40.64891 -73.79272 26 ft 0 kts 58°
2026-05-09 11:56 40.65007 -73.79000 22 ft 15 kts 60°
2026-05-09 11:56 40.65068 -73.78925 22 ft 10 kts 18°
2026-05-09 11:56 40.65072 -73.78924 22 ft 0 kts 17°
2026-05-09 11:58 40.65101 -73.78902 22 ft 12 kts 36°
2026-05-09 11:58 40.65131 -73.78837 22 ft 8 kts 72°
2026-05-09 11:58 40.65152 -73.78751 23 ft 11 kts 71°
2026-05-09 11:59 40.65189 -73.78656 27 ft 11 kts 62°
2026-05-09 11:59 40.65224 -73.78568 28 ft 14 kts 62°
2026-05-09 11:59 40.65304 -73.78479 22 ft 16 kts 13°
2026-05-09 11:59 40.65342 -73.78456 22 ft 0 kts 36°
2026-05-09 12:00 40.65355 -73.78439 23 ft 14 kts 45°
2026-05-09 12:00 40.65429 -73.78307 28 ft 14 kts 57°
2026-05-09 12:00 40.65478 -73.78190 27 ft 16 kts 66°
2026-05-09 12:00 40.65456 -73.78042 24 ft 18 kts 117°
2026-05-09 12:01 40.65393 -73.77895 23 ft 20 kts 121°
2026-05-09 12:01 40.65319 -73.77733 22 ft 22 kts 121°
2026-05-09 12:01 40.65238 -73.77555 22 ft 24 kts 121°
2026-05-09 12:01 40.65150 -73.77363 22 ft 25 kts 121°
2026-05-09 12:02 40.65057 -73.77159 23 ft 27 kts 121°
2026-05-09 12:02 40.64959 -73.76946 27 ft 28 kts 121°
2026-05-09 12:02 40.64902 -73.76817 24 ft 10 kts 120°
2026-05-09 12:02 40.64884 -73.76722 22 ft 11 kts 76°
2026-05-09 12:03 40.64939 -73.76652 22 ft 12 kts 36°
2026-05-09 12:03 40.65018 -73.76584 22 ft 15 kts 32°
2026-05-09 12:03 40.65072 -73.76534 23 ft 6 kts 47°
2026-05-09 12:03 40.65086 -73.76481 22 ft 5 kts 90°
2026-05-09 12:04 40.65072 -73.76426 23 ft 7 kts 116°
2026-05-09 12:04 40.65022 -73.76378 22 ft 14 kts 174°
2026-05-09 12:04 40.64899 -73.76453 22 ft 26 kts 210°
2026-05-09 12:04 40.64621 -73.76669 24 ft 88 kts 210°
2026-05-09 12:05 40.63808 -73.77308 45 ft 180 kts 209°
2026-05-09 12:05 40.62652 -73.78238 904 ft 203 kts 211°
2026-05-09 12:05 40.61376 -73.79256 1835 ft 223 kts 212°
2026-05-09 12:05 40.60030 -73.80325 2541 ft 228 kts 213°
2026-05-09 12:06 40.58677 -73.81439 3291 ft 230 kts 218°
2026-05-09 12:06 40.57675 -73.83057 3984 ft 232 kts 246°
2026-05-09 12:06 40.57438 -73.85161 4678 ft 241 kts 273°
2026-05-09 12:06 40.58060 -73.87249 5373 ft 256 kts 300°
2026-05-09 12:07 40.59196 -73.89105 6015 ft 262 kts 301°
2026-05-09 12:07 40.59902 -73.91258 6645 ft 255 kts 274°
2026-05-09 12:07 40.59748 -73.93525 7353 ft 248 kts 247°
2026-05-09 12:07 40.58791 -73.95361 8105 ft 246 kts 221°
2026-05-09 12:08 40.57249 -73.96357 8850 ft 253 kts 195°
2026-05-09 12:08 40.55463 -73.96262 9587 ft 267 kts 170°
2026-05-09 12:08 40.53791 -73.95043 10240 ft 287 kts 146°
2026-05-09 12:08 40.52515 -73.92864 10506 ft 319 kts 122°
2026-05-09 12:09 40.51896 -73.89944 10715 ft 348 kts 99°
2026-05-09 12:09 40.52111 -73.86676 10942 ft 371 kts 77°
2026-05-09 12:09 40.53194 -73.83541 11211 ft 386 kts 55°
2026-05-09 12:10 40.59191 -73.76322 12725 ft 395 kts 36°
2026-05-09 12:10 40.61512 -73.74409 13240 ft 392 kts 20°
2026-05-09 12:10 40.64103 -73.73454 13790 ft 384 kts
2026-05-09 12:11 40.66712 -73.73730 14261 ft 372 kts 338°
2026-05-09 12:11 40.69100 -73.74954 14754 ft 367 kts 329°
2026-05-09 12:11 40.71567 -73.76000 15225 ft 377 kts 340°
2026-05-09 12:11 40.74135 -73.76759 15726 ft 380 kts 341°
2026-05-09 12:12 40.76721 -73.77478 16263 ft 381 kts 341°
2026-05-09 12:12 40.79319 -73.78232 16780 ft 382 kts 340°
2026-05-09 12:12 40.81888 -73.79098 17260 ft 381 kts 335°
2026-05-09 12:12 40.84292 -73.80474 17753 ft 374 kts 324°
2026-05-09 12:13 40.86521 -73.82235 18235 ft 373 kts 320°
2026-05-09 12:13 40.88659 -73.84170 18665 ft 373 kts 317°
2026-05-09 12:13 40.90750 -73.86207 19092 ft 374 kts 316°
2026-05-09 12:13 40.92824 -73.88288 19518 ft 375 kts 315°
2026-05-09 12:14 40.94906 -73.90388 19948 ft 377 kts 315°
2026-05-09 12:14 40.96972 -73.92461 20360 ft 379 kts 315°
2026-05-09 12:14 40.99078 -73.94557 20833 ft 380 kts 315°
2026-05-09 12:14 41.01198 -73.96653 21268 ft 381 kts 315°
2026-05-09 12:15 41.03332 -73.98754 21692 ft 383 kts 315°
2026-05-09 12:15 41.05475 -74.00860 22100 ft 384 kts 315°
2026-05-09 12:15 41.07626 -74.02973 22520 ft 386 kts 315°
2026-05-09 12:15 41.09784 -74.05094 22879 ft 387 kts 315°
2026-05-09 12:16 41.11941 -74.07218 22966 ft 387 kts 315°
2026-05-09 12:16 41.14109 -74.09356 22969 ft 388 kts 315°
2026-05-09 12:16 41.16277 -74.11496 22965 ft 388 kts 315°
2026-05-09 12:16 41.18440 -74.13636 22970 ft 388 kts 315°
2026-05-09 12:17 41.20607 -74.15778 22967 ft 389 kts 315°
2026-05-09 12:17 41.22776 -74.17923 22980 ft 389 kts 315°
2026-05-09 12:17 41.24946 -74.20070 22982 ft 389 kts 315°
2026-05-09 12:17 41.27113 -74.22219 22976 ft 389 kts 315°
2026-05-09 12:18 41.29279 -74.24368 22976 ft 389 kts 315°
2026-05-09 12:18 41.31443 -74.26519 22976 ft 388 kts 315°
2026-05-09 12:18 41.33605 -74.28671 22975 ft 388 kts 315°
2026-05-09 12:18 41.35762 -74.30819 22973 ft 388 kts 315°
2026-05-09 12:19 41.37921 -74.32977 22976 ft 387 kts 315°
2026-05-09 12:19 41.39915 -74.35332 22975 ft 379 kts 306°
2026-05-09 12:19 41.41561 -74.38023 22980 ft 372 kts 298°
2026-05-09 12:19 41.42988 -74.40889 22976 ft 370 kts 296°
2026-05-09 12:20 41.44313 -74.43823 22972 ft 369 kts 294°
2026-05-09 12:20 41.45588 -74.46795 22971 ft 369 kts 294°
2026-05-09 12:20 41.46847 -74.49786 22970 ft 369 kts 293°
2026-05-09 12:20 41.48102 -74.52770 22960 ft 369 kts 294°
2026-05-09 12:21 41.49367 -74.55757 23003 ft 371 kts 294°
2026-05-09 12:21 41.50646 -74.58757 23392 ft 372 kts 294°
2026-05-09 12:21 41.51930 -74.61745 23824 ft 371 kts 294°
2026-05-09 12:21 41.53218 -74.64733 24181 ft 373 kts 294°
2026-05-09 12:22 41.54513 -74.67735 24524 ft 373 kts 294°
2026-05-09 12:22 41.55811 -74.70747 24854 ft 375 kts 294°
2026-05-09 12:22 41.57115 -74.73780 25199 ft 377 kts 294°
2026-05-09 12:22 41.58421 -74.76821 25563 ft 378 kts 294°
2026-05-09 12:23 41.59728 -74.79869 25925 ft 380 kts 294°
2026-05-09 12:23 41.61042 -74.82940 26319 ft 381 kts 294°
2026-05-09 12:23 41.62359 -74.86020 26712 ft 382 kts 294°
2026-05-09 12:23 41.63680 -74.89110 27132 ft 384 kts 294°
2026-05-09 12:24 41.65008 -74.92222 27544 ft 386 kts 294°
2026-05-09 12:24 41.66337 -74.95337 27994 ft 388 kts 294°
2026-05-09 12:24 41.67676 -74.98482 28462 ft 389 kts 294°
2026-05-09 12:24 41.69000 -75.01597 28919 ft 391 kts 294°
2026-05-09 12:25 41.70348 -75.04771 29379 ft 393 kts 294°
2026-05-09 12:25 41.71699 -75.07953 29843 ft 395 kts 294°
2026-05-09 12:25 41.73061 -75.11163 30253 ft 397 kts 294°
2026-05-09 12:25 41.74427 -75.14387 30674 ft 399 kts 294°
2026-05-09 12:26 41.75794 -75.17618 31085 ft 400 kts 294°
2026-05-09 12:26 41.77171 -75.20874 31466 ft 402 kts 294°
2026-05-09 12:26 41.78547 -75.24132 31825 ft 404 kts 294°
2026-05-09 12:27 41.80862 -75.29616 31945 ft 402 kts 294°
2026-05-09 12:27 41.83609 -75.36140 31940 ft 402 kts 294°
2026-05-09 12:28 41.86351 -75.42673 31934 ft 402 kts 293°
2026-05-09 12:28 41.89089 -75.49209 31929 ft 402 kts 293°
2026-05-09 12:29 41.91820 -75.55740 31923 ft 401 kts 293°
2026-05-09 12:29 41.96733 -75.67521 31922 ft 401 kts 293°
2026-05-09 12:30 42.02157 -75.80607 31908 ft 401 kts 293°
2026-05-09 12:30 42.10247 -76.00214 31912 ft 401 kts 292°
2026-05-09 12:31 42.19390 -76.24878 31903 ft 397 kts 288°
2026-05-09 12:32 42.25280 -76.43351 31904 ft 397 kts 288°
2026-05-09 12:32 42.29644 -76.57083 31902 ft 398 kts 287°
2026-05-09 12:33 42.32569 -76.66316 31899 ft 398 kts 287°
2026-05-09 12:33 42.34742 -76.73196 31892 ft 398 kts 287°
2026-05-09 12:34 42.36913 -76.80097 31884 ft 398 kts 287°
2026-05-09 12:34 42.39082 -76.87000 31884 ft 399 kts 287°
2026-05-09 12:35 42.41249 -76.93914 31887 ft 399 kts 287°
2026-05-09 12:35 42.43413 -77.00837 31888 ft 400 kts 287°
2026-05-09 12:36 42.45575 -77.07768 31886 ft 400 kts 287°
2026-05-09 12:36 42.47729 -77.14715 31886 ft 400 kts 287°
2026-05-09 12:37 42.49880 -77.21674 31888 ft 401 kts 287°
2026-05-09 12:37 42.52031 -77.28639 31887 ft 401 kts 287°
2026-05-09 12:38 42.54183 -77.35624 31884 ft 402 kts 287°
2026-05-09 12:38 42.56333 -77.42619 31872 ft 402 kts 286°
2026-05-09 12:39 42.58479 -77.49622 31871 ft 402 kts 286°
2026-05-09 12:39 42.60623 -77.56642 31866 ft 403 kts 286°
2026-05-09 12:40 42.62765 -77.63668 31872 ft 403 kts 286°
2026-05-09 12:40 42.64906 -77.70711 31876 ft 404 kts 286°
2026-05-09 12:41 42.67007 -77.77726 31861 ft 403 kts 284°
2026-05-09 12:41 42.68973 -77.84850 31780 ft 403 kts 284°
2026-05-09 12:41 42.69970 -77.88470 31523 ft 414 kts 284°
2026-05-09 12:42 42.70990 -77.92161 31262 ft 419 kts 284°
2026-05-09 12:42 42.72024 -77.95881 31006 ft 422 kts 284°
2026-05-09 12:42 42.73062 -77.99617 30747 ft 424 kts 284°
2026-05-09 12:42 42.74103 -78.03364 30502 ft 426 kts 284°
2026-05-09 12:43 42.75152 -78.07151 30239 ft 428 kts 284°
2026-05-09 12:43 42.76204 -78.10950 29988 ft 430 kts 283°
2026-05-09 12:43 42.77257 -78.14762 29723 ft 431 kts 283°
2026-05-09 12:43 42.78310 -78.18582 29443 ft 430 kts 283°
2026-05-09 12:44 42.79359 -78.22389 29156 ft 429 kts 283°
2026-05-09 12:44 42.80403 -78.26184 28875 ft 427 kts 283°
2026-05-09 12:44 42.81441 -78.29961 28604 ft 426 kts 284°
2026-05-09 12:44 42.82472 -78.33722 28330 ft 424 kts 284°
2026-05-09 12:45 42.83502 -78.37486 28054 ft 423 kts 284°
2026-05-09 12:45 42.84513 -78.41187 27789 ft 421 kts 284°
2026-05-09 12:45 42.85545 -78.44966 27512 ft 420 kts 284°
2026-05-09 12:45 42.86560 -78.48690 27257 ft 419 kts 284°
2026-05-09 12:46 42.87570 -78.52404 26993 ft 417 kts 284°
2026-05-09 12:46 42.88577 -78.56108 26736 ft 416 kts 284°
2026-05-09 12:46 42.89578 -78.59799 26478 ft 415 kts 284°
2026-05-09 12:46 42.90574 -78.63472 26032 ft 409 kts 284°
2026-05-09 12:47 42.91552 -78.67086 25432 ft 404 kts 285°
2026-05-09 12:47 42.92522 -78.70665 24708 ft 402 kts 285°
2026-05-09 12:47 42.93725 -78.74164 23659 ft 415 kts 296°
2026-05-09 12:47 42.95442 -78.77364 22777 ft 420 kts 304°
2026-05-09 12:48 42.97269 -78.80374 22282 ft 411 kts 304°
2026-05-09 12:48 42.99079 -78.83335 22021 ft 404 kts 304°
2026-05-09 12:48 43.00867 -78.86284 21765 ft 404 kts 304°
2026-05-09 12:48 43.02654 -78.89245 21485 ft 403 kts 304°
2026-05-09 12:49 43.04435 -78.92202 21213 ft 402 kts 304°
2026-05-09 12:49 43.06206 -78.95146 20981 ft 400 kts 304°
2026-05-09 12:49 43.07967 -78.98079 20696 ft 399 kts 304°
2026-05-09 12:49 43.09725 -79.01009 20319 ft 397 kts 304°
2026-05-09 12:50 43.11469 -79.03920 19948 ft 395 kts 304°
2026-05-09 12:50 43.13202 -79.06815 19573 ft 392 kts 304°
2026-05-09 12:50 43.14922 -79.09694 19219 ft 390 kts 304°
2026-05-09 12:50 43.16636 -79.12571 18896 ft 388 kts 304°
2026-05-09 12:51 43.18335 -79.15431 18545 ft 386 kts 304°
2026-05-09 12:51 43.20123 -79.18184 18194 ft 387 kts 310°
2026-05-09 12:51 43.21992 -79.20705 17626 ft 364 kts 311°
2026-05-09 12:51 43.23763 -79.23020 16894 ft 341 kts 311°
2026-05-09 12:52 43.25435 -79.25196 16282 ft 320 kts 312°
2026-05-09 12:52 43.27001 -79.27228 15748 ft 301 kts 312°
2026-05-09 12:52 43.28501 -79.29180 14960 ft 294 kts 312°
2026-05-09 12:52 43.29974 -79.31100 14087 ft 291 kts 313°
2026-05-09 12:53 43.31434 -79.33001 13184 ft 288 kts 313°
2026-05-09 12:53 43.32891 -79.34892 12329 ft 286 kts 314°
2026-05-09 12:53 43.34327 -79.36754 11544 ft 281 kts 314°
2026-05-09 12:53 43.35766 -79.38587 11112 ft 282 kts 316°
2026-05-09 12:54 43.37390 -79.40056 10821 ft 280 kts 329°
2026-05-09 12:54 43.39147 -79.41238 10517 ft 282 kts 329°
2026-05-09 12:54 43.40907 -79.42433 10237 ft 282 kts 329°
2026-05-09 12:54 43.42668 -79.43612 9939 ft 282 kts 329°
2026-05-09 12:55 43.44436 -79.44778 9639 ft 281 kts 330°
2026-05-09 12:55 43.46208 -79.45934 9337 ft 281 kts 330°
2026-05-09 12:55 43.47971 -79.47078 9022 ft 280 kts 330°
2026-05-09 12:55 43.49737 -79.48221 8733 ft 280 kts 330°
2026-05-09 12:56 43.51476 -79.49341 8551 ft 269 kts 330°
2026-05-09 12:56 43.53108 -79.50382 8315 ft 248 kts 330°
2026-05-09 12:56 43.54622 -79.51343 8088 ft 236 kts 330°
2026-05-09 12:56 43.56116 -79.52301 7916 ft 236 kts 330°
2026-05-09 12:57 43.57599 -79.53223 7693 ft 233 kts 333°
2026-05-09 12:57 43.59207 -79.53654 7537 ft 242 kts 359°
2026-05-09 12:57 43.60801 -79.52897 7396 ft 248 kts 33°
2026-05-09 12:57 43.62070 -79.51290 7257 ft 248 kts 44°
2026-05-09 12:58 43.63240 -79.49542 7061 ft 247 kts 45°
2026-05-09 12:58 43.64402 -79.47800 6805 ft 246 kts 45°
2026-05-09 12:58 43.65516 -79.46143 6551 ft 232 kts 45°
2026-05-09 12:58 43.66581 -79.44561 6326 ft 221 kts 45°
2026-05-09 12:59 43.67639 -79.42996 6123 ft 217 kts 45°
2026-05-09 12:59 43.68647 -79.41511 5876 ft 214 kts 45°
2026-05-09 12:59 43.69669 -79.40012 5624 ft 214 kts 45°
2026-05-09 12:59 43.70695 -79.38511 5328 ft 215 kts 45°
2026-05-09 13:00 43.71722 -79.37008 4988 ft 215 kts 45°
2026-05-09 13:00 43.72762 -79.35489 4672 ft 215 kts 45°
2026-05-09 13:00 43.73786 -79.34001 4313 ft 217 kts 46°
2026-05-09 13:00 43.74840 -79.32462 3906 ft 218 kts 46°
2026-05-09 13:01 43.76000 -79.31151 3536 ft 221 kts 28°
2026-05-09 13:01 43.77501 -79.30649 3163 ft 221 kts 354°
2026-05-09 13:01 43.78825 -79.31440 3006 ft 199 kts 309°
2026-05-09 13:01 43.79292 -79.33099 3046 ft 191 kts 263°
2026-05-09 13:02 43.79157 -79.35043 2994 ft 214 kts 256°
2026-05-09 13:02 43.78955 -79.37091 2972 ft 204 kts 257°
2026-05-09 13:02 43.78818 -79.38869 3046 ft 173 kts 257°
2026-05-09 13:02 43.78712 -79.40427 3037 ft 154 kts 257°
2026-05-09 13:03 43.78614 -79.41879 3016 ft 151 kts 257°
2026-05-09 13:03 43.78463 -79.43304 3006 ft 147 kts 248°
2026-05-09 13:03 43.77945 -79.44471 3010 ft 142 kts 222°
2026-05-09 13:03 43.77251 -79.45445 3008 ft 143 kts 221°
2026-05-09 13:04 43.76571 -79.46445 2995 ft 139 kts 222°
2026-05-09 13:04 43.75933 -79.47396 2849 ft 132 kts 221°
2026-05-09 13:04 43.75318 -79.48306 2608 ft 128 kts 221°
2026-05-09 13:04 43.74712 -79.49197 2430 ft 127 kts 221°
2026-05-09 13:05 43.74104 -79.50084 2261 ft 127 kts 221°
2026-05-09 13:05 43.73494 -79.50971 2081 ft 127 kts 220°
2026-05-09 13:05 43.72883 -79.51855 1905 ft 128 kts 221°
2026-05-09 13:05 43.72269 -79.52746 1724 ft 128 kts 221°
2026-05-09 13:06 43.71658 -79.53632 1591 ft 127 kts 221°
2026-05-09 13:06 43.71046 -79.54519 1452 ft 128 kts 221°
2026-05-09 13:06 43.70456 -79.55458 1313 ft 131 kts 225°
2026-05-09 13:06 43.69820 -79.56360 1174 ft 132 kts 221°
2026-05-09 13:07 43.69192 -79.57287 1058 ft 133 kts 220°
2026-05-09 13:07 43.68547 -79.58207 907 ft 133 kts 220°
2026-05-09 13:07 43.67914 -79.59157 748 ft 135 kts 223°
2026-05-09 13:07 43.67277 -79.60094 580 ft 133 kts 223°
2026-05-09 13:08 43.66681 -79.60950 575 ft 117 kts 226°
2026-05-09 13:08 43.66223 -79.61613 572 ft 54 kts 227°
2026-05-09 13:08 43.66032 -79.61948 572 ft 41 kts 245°
2026-05-09 13:08 43.65991 -79.62111 571 ft 13 kts 258°
2026-05-09 13:09 43.66018 -79.62228 568 ft 17 kts 313°
2026-05-09 13:09 43.66060 -79.62283 574 ft 12 kts 316°
2026-05-09 13:09 43.66176 -79.62432 573 ft 7 kts 317°
2026-05-09 13:09 43.66192 -79.62452 569 ft 15 kts 319°
2026-05-09 13:10 43.66290 -79.62467 569 ft 23 kts 28°
2026-05-09 13:10 43.66325 -79.62433 574 ft 0 kts 39°
2026-05-09 13:10 43.66364 -79.62389 575 ft 24 kts 39°
2026-05-09 13:10 43.66559 -79.62147 577 ft 32 kts 44°
2026-05-09 13:11 43.66663 -79.62014 579 ft 20 kts 43°
2026-05-09 13:11 43.66771 -79.61878 573 ft 22 kts 41°
2026-05-09 13:11 43.66886 -79.61732 578 ft 24 kts 43°
2026-05-09 13:11 43.67014 -79.61570 579 ft 26 kts 43°
2026-05-09 13:12 43.67145 -79.61402 577 ft 24 kts 43°
2026-05-09 13:12 43.67290 -79.61350 572 ft 23 kts
2026-05-09 13:12 43.67427 -79.61287 572 ft 17 kts 24°
2026-05-09 13:12 43.67476 -79.61224 572 ft 15 kts 47°
2026-05-09 13:13 43.67570 -79.61173 574 ft 9 kts 10°
2026-05-09 13:13 43.67589 -79.61169 572 ft 0 kts